Location: Peebles
(55.6412°N, 3.1714°W)
Time: 13:59:41
(UTC+01:00)

Cosmos 1733 - Pass Details

Date: 26 September 2021
Orbit: 504 x 519 km, 82.5° (Epoch: 17 October)

Event Time Altitude Azimuth Distance (km) Brightness Sun altitude
Rises 20:52:18 0° 193° (SSW) 2,613 6.7 -16.2°
Reaches altitude 10° 20:54:25 10° 194° (SSW) 1,735 5.8 -16.5°
Maximum altitude 20:58:13 82° 281° (WNW) 528 3.2 -17.0°
Drops below altitude 10° 21:02:05 10° 11° (N) 1,758 6.0 -17.5°
Sets 21:04:14 0° 12° (NNE) 2,653 7.0 -17.8°
